Location: Ferintosh
(52.7647°N, 112.9692°W)
Time: 00:46:14
(UTC+00:00)

Vanguard 1 Rocket - Pass Details

Date: 18 May 2024
Orbit: 649 x 4221 km, 34.3° (Epoch: 13 June)

Event Time Altitude Azimuth Distance (km) Brightness Sun altitude
Rises 16:12:16 0° 205° (SSW) 7,896 12.2 40.0°
Reaches altitude 10° 16:20:45 10° 191° (S) 6,247 11.9 41.2°
Maximum altitude 16:30:50 18° 157° (SSE) 4,612 11.8 42.5°
Drops below altitude 10° 16:38:10 10° 121° (ESE) 4,366 12.0 43.5°
Sets 16:42:24 0° 102° (ESE) 4,811 11.8 44.1°
